Location: Newark
(53.3333°N, 83.7500°E)
Time: 05:32:53
(UTC+00:00)

Vanguard 2 - Pass Details

Date: 21 November 2019
Orbit: 553 x 2938 km, 32.9° (Epoch: 05 December)

Event Time Altitude Azimuth Distance (km) Brightness Sun altitude
Rises 02:53:37 0° 227° (SW) 5,410 11.8 5.4°
Reaches altitude 10° 02:59:34 10° 209° (SSW) 3,845 11.4 6.0°
Maximum altitude 03:04:17 15° 179° (S) 2,999 11.4 6.5°
Drops below altitude 10° 03:08:06 10° 147° (SSE) 2,960 12.9 6.9°
Sets 03:11:41 0° 124° (ESE) 3,541 12.8 7.3°
